Aérodrome :







RETROUVEZ-NOUS SUR...

 
LOGIN :

S'inscrire | Disclaimer

   EN    FR    IT 

 









Légende :    VFR   VFR Marginal   IFR   IFR Intensif   IFR Très Intensif
Visi : 
Plafond : 
>= 8 km
>= 3000ft
5 à 8 km
1000 à 3000 ft
1500m à 5 km
500 à 1000 ft
800 à 1500m
200 à 500 ft
< 800m
< 200 ft
Symboles :   Orages  Brouillard  Fortes neiges  Fortes précipitations  Vent > 20 kt






- Altitude de l'aérodrome : 74 ft
- Code IATA : PMV


SVMG - Del Caribe Int. Gen Santiago M

DERNIER METAR :
  • 141202Z AUTO 09008KT NCD 27/26 Q1014

METARs EXPIRÉS :
  • 141102Z AUTO 09008KT NCD 20/25 Q1013
  • 141002Z AUTO 10009KT NCD 27/26 Q1013

TAF TAF SVMG
Valide du 14 à 12h jusqu'au 15 à 12h UTC


141000Z 1412/1512 10010KT 9999 SCT0016 SCT030 TX30/19Z TN24/09Z
BECMG 1412/1416 08006KT 9999 SCT016
FIR SVZM / Amérique du Sud



MET'MAP, la Météo Aéronautique d'un coup d'oeil ! - Copyright ORBIFLY Décembre 2007 - Disclaimer

ORBIFLY MET'MAP TEAM :

Programmation & Développement : Alexandra Zaïnal
Sur une idée originale de : Baudouin d'Aumeries
Assistance à la programmation : Marc-Olivier Méhu
Soutien technique & logistique : Manuel Goepfert

Contact : metmap@orbifly.com




SOURCES & CREDITS :

   NOAA